Location: Arroyo de Valdeoliva
(40.1604°N, 4.9878°W)
Time: 19:29:51
(UTC+00:00)

CZ-2D R/B - Pass Details

Date: 11 December 2025
Orbit: 399 x 404 km, 97.4° (Epoch: 11 January)

Event Time Altitude Azimuth Distance (km) Brightness Sun altitude
Rises 18:10:48 0° 174° (S) 2,309 6.7 -14.2°
Reaches altitude 10° 18:12:47 10° 179° (S) 1,458 5.7 -14.5°
Maximum altitude 18:15:51 59° 259° (W) 476 3.3 -15.1°
Drops below altitude 10° 18:18:59 10° 340° (NNW) 1,482 5.5 -15.6°
Sets 18:21:01 0° 345° (NNW) 2,352 6.5 -16.0°
